Preview of NWS' New Version of Forecast
This preview is not operational and should not be used for support decisions.

Regional Weather Roundup (RWR)

Issued by National Weather Service (NWS)

                            
000
ASUS42 KTBW 220017
RWRFL 
FLORIDA REGIONAL WEATHER ROUNDUP
NATIONAL WEATHER SERVICE TAMPA BAY RUSKIN FL
700 PM EST THU FEB 21 2019

NOTE: "FAIR" INDICATES FEW OR NO CLOUDS BELOW 12,000 FEET WITH NO
SIGNIFICANT WEATHER AND/OR OBSTRUCTIONS TO VISIBILITY.

FLZ001>010-012>015-112-114-115-220100-
PANHANDLE FLORIDA
  
CITY           SKY/WX    TMP DP  RH WIND       PRES   REMARKS
PENSACOLA      FOG       68  67  96 SE7       30.04R VSB 3/4          
PENSACOLA NAS  FOG       69  69 100 E10       30.04R VSB 1/2          
MILTON NAS     CLOUDY    72  71  97 SE6       30.04R                  
CRESTVIEW      CLOUDY    73  69  87 S5        30.06S                  
DUKE FIELD     CLOUDY    71  71 100 SE7       30.05S                  
VALPARAISO     CLOUDY    70  70 100 SE8       30.04S FOG              
MARY ESTHER    FOG       69  68  97 SE9       30.04  VSB 1/2          
PANAMA CITY    FOG       70  69  97 SE7       30.06R VSB 1            
TYNDALL AFB    CLOUDY    70  70 100 SE5       30.07S FOG              
APALACHICOLA   CLOUDY    69  66  90 E5        30.07R                  

STATION/POSITION SKY/WX   TEMP    WIND        PRES    WAVE   SWELL
                          AIR SEA DIR/SP/G            HT/PER HT/PER
                          (F)     (DEG/KT/KT) (MB)    (FT/S) (FT/S)
30.1N   87.6W              67     100/  8/  8   N/A     3/ 6   3/ 6
29.2N   88.2W                     140/  6/  6 1016.8R   3/ 7   3/ 7
PANAMA CITY BEAC           67 65  120/ 12/ 12 1018.3R
TOWER C                    66     150/ 13/ 14 1018.4R

$$
FLZ011-016>038-118-127-128-134-139-239-220100-
NORTH FLORIDA
  
CITY           SKY/WX    TMP DP  RH WIND       PRES   REMARKS
MARIANNA       CLOUDY    75  67  76 SW5       30.06R                  
TALLAHASSEE    FAIR      72  68  87 S6        30.08R                  
PERRY          FAIR      71  69  90 SW3       30.09S                  
LIVE OAK       PTCLDY    77  64  65 CALM      30.07R                  
CROSS CITY     FAIR      73  69  85 SW5       30.09S                  
LAKE CITY      MOCLDY    72  61  68 SE6       30.08R                  
GAINESVILLE    CLOUDY    80  63  55 SE8       30.11R                  
WILLISTON        N/A    N/A N/A N/A MISG        N/A                   
PALATKA        CLOUDY   N/A N/A N/A SE5       30.09S                  
MAYPORT NAS    MOCLDY    70  66  87 SE9       30.09S                  
JACKSONVILLE   FAIR      76  65  68 SE8       30.07S                  
JAX NAS        MOCLDY    77  66  68 SE8       30.09S                  
JAX CECIL      PTCLDY    79  68  69 SE9       30.08R                  
FERNANDINA BEA FAIR      70  66  86 S16       30.09S                  
ST AUGUSTINE   CLOUDY    70  68  93 SE8       30.11S                  
PALM COAST     MOCLDY    70  66  88 SE7       30.10S                  

STATION/POSITION SKY/WX   TEMP    WIND        PRES    WAVE   SWELL
                          AIR SEA DIR/SP/G            HT/PER HT/PER
                          (F)     (DEG/KT/KT) (MB)    (FT/S) (FT/S)
SHELL POINT      NOT AVBL
KEATON BEACH               71     180/  7/  8 1019.0S
CEDAR KEY                  72     250/  3/  4 1019.1R
FERNANDINA                        140/  9/ 14   N/A
30.7N   81.3W                 61                N/A     3/ 7
MAYPORT                           140/  4/  9   N/A
31.4N   80.9W              64 61  130/ 10/ 10 1019.2S   4/ 8   3/ 8
ST AUGUSTINE               67 63  160/  4/  5 1019.5R

$$
FLZ040-043>046-052-053-057-058-063-144-220100-
INTERIOR CENTRAL FLORIDA
  
CITY           SKY/WX    TMP DP  RH WIND       PRES   REMARKS
OCALA          FAIR      75  65  70 SW7       30.09R                  
LEESBURG       CLOUDY    76  67  73 NE3       30.09R                  
SANFORD        FAIR      74  69  85 E8        30.09R                  
ORLANDO EXEC   FAIR      77  67  71 E8        30.09R                  
ORLANDO INTL   FAIR      77  68  73 SE9       30.09R                  
KISSIMMEE      FAIR      79  69  71 SE6       30.09R                  
WINTER HAVEN   FAIR      81  67  62 S5        30.09R                  
LAKELAND       CLEAR     84  61  45 CALM      30.09R                  
BARTOW         MOCLDY    79  68  69 SE6       30.07S                  
SEBRING        MOCLDY    78  68  73 SE7       30.09R                  
OKEECHOBEE     FAIR      77  64  65 SE8       30.09R                  

$$
FLZ041-047-054-059-064-141-147-220100-
EAST CENTRAL FLORIDA
  
CITY           SKY/WX    TMP DP  RH WIND       PRES   REMARKS
ORMOND BEACH   PTCLDY    72  68  88 CALM      30.10R                  
DAYTONA BEACH  MOCLDY    75  70  84 E3        30.10R                  
DELAND         CLOUDY    72  72 100 CALM      30.09S                  
NEW SMYRNA BEA PTCLDY    73  68  83 SE5       30.11R                  
JFK SPACE CTR  FAIR      74  68  83 S7        30.09R                  
TITUSVILLE     PTCLDY    77  70  78 SE12      30.10R                  
CAPE CANAVERAL FAIR      70  67  91 SE8       30.09R                  
PATRICK AFB    FAIR      70  70  99 SE10      30.09R                  
MELBOURNE      FAIR      76  68  76 SE14      30.09R                  
VERO BEACH     FAIR      75  69  81 SE12      30.11R                  
FT PIERCE      FAIR      76  68  76 SE12      30.10R                  
STUART         CLEAR     75  68  78 SE14      30.11R                  

STATION/POSITION SKY/WX   TEMP    WIND        PRES    WAVE   SWELL
                          AIR SEA DIR/SP/G            HT/PER HT/PER
                          (F)     (DEG/KT/KT) (MB)    (FT/S) (FT/S)
28.5N   80.2W              72     140/  8/ 10 1019.8R   4/ 8   3/ 8
28.9N   78.5W              76 78  150/ 12/ 14 1021.3R   5/ 8   3/ 8
TRIDENT PIER                      120/  4/  7   N/A
28.4N   80.5W                 67                N/A     3/ 5

$$
FLZ050-056-061-142-242-148-248-149-249-151-251-155-255-
160-260-220100-
WEST CENTRAL FLORIDA
  
CITY           SKY/WX    TMP DP  RH WIND       PRES   REMARKS
CRYSTAL RIVER  FAIR      73  68  83 CALM      30.09S                  
INVERNESS      FAIR      72  72 100 CALM      30.10R                  
BROOKSVILLE    FAIR      77  68  73 NW6       30.09R                  
CLEARWATER AIR FAIR      73  68  83 S3        30.07S                  
ST PETE CLEARW FAIR      75  67  76 SW7       30.07S                  
TAMPA INTL     FAIR      76  69  79 CALM      30.08R                  
TAMPA EXEC     FAIR      75  64  69 CALM      30.09R                  
PLANT CITY     FAIR      77  64  65 W3        30.10S                  
MACDILL AFB    DRIZZLE   73  69  86 CALM      30.07S                  
PETER O KNIGHT FAIR      77  70  78 CALM      30.08S                  
ST PETERSBURG  FAIR      76  69  79 SW6       30.06R                  
SARASOTA       FAIR      77  70  79 S10       30.07R                  
VENICE         FAIR      75  72  88 S9        30.08S                  

STATION/POSITION SKY/WX   TEMP    WIND        PRES    WAVE   SWELL
                          AIR SEA DIR/SP/G            HT/PER HT/PER
                          (F)     (DEG/KT/KT) (MB)    (FT/S) (FT/S)
27.3N   84.2W                 73                N/A     3/ 5
CLEARWATER BEACH           74 73  180/  6/  7 1018.5R
MIDDLE TAMPA BAY                  220/  5/  6   N/A
VENICE                     75 71  160/  9/ 10 1018.4R

$$
FLZ066-069-070-075>078-162-262-165-265-220100-
SOUTHWEST FLORIDA AND KEYS
  
CITY           SKY/WX    TMP DP  RH WIND       PRES   REMARKS
PUNTA GORDA    CLOUDY    76  67  73 SE5       30.09R                  
FT MYERS       FAIR      77  69  76 SW6       30.07R                  
SOUTHWEST INTL FAIR      76  70  82 NW3       30.07S                  
NAPLES         MOCLDY    79  71  76 S5        30.07R                  
MARCO ISLAND   CLOUDY   N/A N/A N/A S7        30.08S                  
IMMOKALEE      CLOUDY    77  70  78 E6        30.06R                  
MARATHON       FAIR      81  69  67 E8        30.07R                  
KEY WEST NAS   FAIR      79  70  74 E16       30.06R                  
KEY WEST INTL  FAIR      79  71  76 E14       30.06R                  

STATION/POSITION SKY/WX   TEMP    WIND        PRES    WAVE   SWELL
                          AIR SEA DIR/SP/G            HT/PER HT/PER
                          (F)     (DEG/KT/KT) (MB)    (FT/S) (FT/S)
NAPLES                            120/  1/  5   N/A
26.0N   85.6W              79 80  130/ 14/ 17 1016.4R   3/ 6   2/ 8
DRY TORTUGAS               78     100/ 11/ 12 1017.4R
SAND KEY                   78                 1017.4S
SOMBRERO KEY               78                 1017.6R
LONG KEY                   78 80  100/ 14/ 16 1018.1R

$$
FLZ067-068-071>074-168-172>174-220100-
SOUTHEAST FLORIDA 
  
CITY           SKY/WX    TMP DP  RH WIND       PRES   REMARKS
W PALM BEACH   FAIR      77  68  73 SE9       30.11R                  
BOCA RATON     CLEAR     77  70  78 SE12      30.10R                  
FT LAUDER-EXEC FAIR      78  71  79 E10       30.09S                  
FT LAUDERDALE  FAIR      78  71  79 SE13      30.09S                  
POMPANO BEACH  FAIR      78  70  76 SE13      30.10S                  
PEMBROKE PINES FAIR      77  68  73 E9        30.11R                  
OPA LOCKA      FAIR      77  67  71 SE13      30.10S                  
MIAMI          FAIR      77  69  76 SE9       30.10S                  
WEST KENDALL   FAIR      77  68  73 SE8       30.09S                  
HOMESTEAD      FAIR      76  69  80 E6        30.08S                  

STATION/POSITION SKY/WX   TEMP    WIND        PRES    WAVE   SWELL
                          AIR SEA DIR/SP/G            HT/PER HT/PER
                          (F)     (DEG/KT/KT) (MB)    (FT/S) (FT/S)
PORT EVERGLADES            78     110/  6/ 10 1019.3R
VIRGINIA KEY               78 80  110/  6/  9 1018.7R
LAKE WORTH                        120/ 13/ 16   N/A
FOWEY ROCKS                78 78  110/ 12/ 13 1019.8R
SETTLEMENT POINT           76     130/  8/ 10 1020.3R

$$